Location: Cuzcurrita-R�o Tir�n
(42.5415°N, 2.9642°W)
Time: 01:51:16
(UTC+00:00)

Cosmos 1300 - Pass Details

Date: 17 January 2021
Orbit: 511 x 513 km, 82.5° (Epoch: 08 March)

Event Time Altitude Azimuth Distance (km) Brightness Sun altitude
Rises 18:14:11 0° 351° (N) 2,639 6.2 -12.3°
Reaches altitude 10° 18:16:20 10° 352° (N) 1,747 5.3 -12.7°
Maximum altitude 18:20:10 90° 199° (SSW) 520 2.6 -13.4°
Drops below altitude 10° 18:23:58 10° 173° (S) 1,732 5.5 -14.1°
Sets 18:26:05 0° 173° (S) 2,613 6.4 -14.5°
